Location: Corralito
(10.2667°N, 66.9500°W)
Time: 02:37:27
(UTC+00:00)

Cosmos 1331 Rocket - Pass Details

Date: 13 December 2023
Orbit: 748 x 775 km, 74.0° (Epoch: 22 February)

Event Time Altitude Azimuth Distance (km) Brightness Sun altitude
Exits shadow 08:35:31 - 20° (NNE) 2,595 6.7 -28.3°
Reaches altitude 10° 08:36:39 10° 28° (NNE) 2,266 6.5 -28.1°
Maximum altitude 08:40:22 20° 75° (ENE) 1,678 6.3 -27.2°
Drops below altitude 10° 08:44:03 10° 121° (ESE) 2,260 7.4 -26.4°
Sets 08:46:59 0° 138° (SE) 3,184 8.2 -25.7°
